#timestamp,LO_Frequency,Hit,StdDev 
1506484815.6,286046988.5,N
1506484835.5,286046988.8,N
1506484855.3,286046985.5,N
1506484875.1,286046985.4,N
1506484895.9,286046986.9,N
1506484915.7,286046988.2,N
1506484935.5,286046985.8,N
1506484955.4,286046985.8,N
1506484975.2,286046988.7,N
1506484995.0,286046989.0,N
1506484995.9,286046989.0,N
1506485015.8,286046985.5,N
1506485035.6,286046988.5,N
1506485055.4,286046991.9,N
1506485075.2,286046994.2,N
1506485095.1,286046995.6,N
1506485096.0,286046995.6,N
1506485115.8,286046997.8,N
1506485135.6,286046995.3,N
1506485155.5,286047001.2,N
1506485175.3,286046999.0,N
1506485195.1,286046996.5,N
1506485215.9,286046999.1,N
1506485235.7,286046998.9,N
1506485255.5,286046999.5,N
1506485275.4,286046995.2,N
1506485295.2,286046995.3,N
1506485315.0,286046995.0,N
1506485315.9,286046995.0,N
1506485335.8,286046997.4,N
1506485355.6,286046995.2,N
1506485375.4,286046997.2,N
1506485395.2,286046999.1,N
1506485415.1,286046998.4,N
1506485416.0,286046998.4,N
1506485435.8,286046998.7,N
1506485455.6,286046998.7,N
1506485475.5,286046996.7,N
1506485495.3,286046997.7,N
1506485515.1,286046997.4,N
1506485535.9,286046996.0,N
1506485555.7,286046995.6,N
1506485575.5,286046994.9,N
1506485595.4,286046998.4,N
1506485615.2,286046999.6,N
1506485635.0,286046998.8,N
1506485635.9,286046998.8,N
1506485655.8,286046996.9,N
1506485675.6,286046997.5,N
1506485695.4,286046994.1,Y
1506485715.3,286046995.7,P
1506485735.1,286046996.4,P
1506485736.0,286046996.4,P
1506485755.8,286046992.5,Y
1506485775.7,286047000.1,P
1506485795.5,286046999.8,N
1506485815.3,286047004.4,N
1506485835.2,286047002.0,N
1506485855.9,286047000.1,N
1506485875.7,286046996.6,N
1506485895.6,286046998.8,N
1506485915.4,286046998.4,N
1506485935.2,286047001.0,N
1506485955.1,286046998.5,N
1506485956.0,286046998.5,N
1506485975.8,286047002.6,N
1506485995.6,286047000.9,N
1506486015.4,286047001.1,N
1506486035.3,286046998.4,N
1506486055.1,286046998.2,N
1506486075.8,286046999.9,N
1506486095.7,286046998.8,N
1506486115.5,286047000.8,N
1506486135.3,286047000.4,N
1506486155.2,286046998.4,N
1506486175.9,286047000.9,N
1506486195.7,286046999.9,N
1506486215.6,286047002.6,N
1506486235.4,286047002.1,N
1506486255.2,286047005.9,Y
1506486275.1,286047005.2,P
1506486276.0,286047005.2,N
1506486295.8,286047005.0,N
1506486315.6,286047006.8,Y
1506486335.5,286047005.1,P
1506486355.3,286047006.7,P
1506486375.1,286047007.3,P
1506486395.9,286047004.7,Y
1506486415.7,286047000.7,P
1506486435.5,286046997.1,N
1506486455.4,286046997.1,N
1506486475.2,286046995.2,N
1506486495.0,286046998.0,N
1506486495.9,286046998.0,N
1506486515.8,286046997.3,N
1506486535.6,286046999.6,N
1506486555.4,286046996.9,N
1506486575.2,286046997.0,N
1506486595.1,286046997.2,N
1506486596.0,286046997.2,N
1506486615.8,286046996.8,N
1506486635.6,286046998.8,N
1506486655.5,286046996.9,N
1506486675.3,286046999.1,N
1506486695.1,286046999.5,N
1506486715.9,286047000.5,N
1506486735.7,286046999.7,N
1506486755.5,286047002.0,N
1506486775.4,286047001.5,N
1506486795.2,286047004.1,N
1506486815.0,286046999.8,N
1506486815.9,286046999.8,N
1506486835.8,286047002.0,N
1506486855.6,286047000.5,N
1506486875.4,286046998.8,N
1506486895.3,286046999.4,N
1506486915.1,286046999.6,N
1506486916.0,286046999.6,N
1506486935.8,286046998.3,N
1506486955.6,286047000.3,N
1506486975.5,286046999.3,N
1506486995.3,286046996.6,N
1506487015.1,286046999.6,N
1506487035.9,286046997.3,N
1506487055.7,286046997.5,N
1506487075.5,286046998.0,N
1506487095.4,286046995.1,N
1506487115.2,286046995.8,N
1506487135.0,286046994.3,N
1506487135.9,286046994.3,N
1506487155.8,286046992.1,Y
1506487175.6,286046994.2,P
1506487195.4,286046996.4,N
1506487215.3,286046994.1,P
1506487235.1,286046993.3,Y
1506487255.8,286046996.8,P
1506487275.7,286046999.5,N
1506487295.5,286047000.4,N
1506487315.3,286046999.3,N
1506487335.2,286046996.6,N
1506487355.9,286046999.2,N
1506487375.7,286047000.8,N
1506487395.6,286046997.1,N
1506487415.4,286046996.5,N
1506487435.2,286046999.8,N
1506487455.0,286047002.1,N
1506487455.9,286047002.1,N
1506487475.8,286047003.9,N
1506487495.6,286047001.7,N
1506487515.4,286047004.1,N
1506487535.3,286047003.0,N
1506487555.1,286047005.7,N
1506487575.8,286047002.4,N
1506487595.7,286047000.4,N
1506487615.5,286047002.4,N
1506487635.3,286047003.2,N
1506487655.2,286047005.8,N
1506487675.9,286047006.1,N
1506487695.7,286047008.2,N
1506487715.6,286047012.2,Y
1506487735.4,286047010.8,P
1506487755.2,286047006.6,N
1506487775.1,286047007.1,N
1506487776.0,286047007.1,N
1506487795.8,286047008.3,N
1506487815.6,286047008.7,Y
1506487835.5,286047000.5,P
1506487855.3,286046998.8,N
1506487875.1,286046997.5,N
1506487895.8,286046995.3,N
1506487915.7,286046995.8,N
1506487935.5,286046993.6,N
1506487955.3,286046994.1,N
1506487975.2,286046993.4,N
1506487995.0,286046995.3,N
1506487995.9,286046995.3,N
1506488015.7,286046996.0,N
1506488035.6,286046996.1,N
1506488055.4,286046996.4,N
1506488075.2,286046995.1,N
1506488095.1,286046996.2,N
1506488096.0,286046996.2,N
1506488115.8,286046996.4,N
1506488135.6,286046995.8,N
1506488155.5,286046996.0,N
1506488175.3,286046995.1,N
1506488195.1,286046995.5,N
1506488215.9,286046994.0,N
1506488235.7,286046996.4,N
1506488255.5,286046993.0,N
1506488275.4,286046990.9,Y
1506488295.2,286046993.6,P
1506488315.0,286046995.8,P
1506488315.9,286046995.8,P
1506488335.8,286046995.7,Y
1506488355.6,286047003.7,P
1506488375.4,286047001.6,N
1506488395.2,286047001.9,N
